Погода Владимир-Волынский

Погода Владимир-Волынский : погода сейчас, прогноз погоды и архив. Всё, что Вы хотите узнать о погоде Владимир-Волынский!

Хотите узнать прогноз погоды Владимир-Волынский? Тогда Вам сюда: Погода Владимир-Волынский

Поиск расширенной информации на нашем сайте:

Другие новости

Новости СМИ2

Главная страница сайта

Новости сайта

02.10.2013

Напоминаем, что на нашем новом сайте вы можете получить высокодетализированные прогнозы погоды по пунктам России, СНГ и мира (включающие важные для авиации метеовеличины, такие как направление и скорость ветра, видимость, явления погоды, количество и форма облачности, нижняя и верхняя граница облачности), а также ознакомиться с разнообразными материалами по авиационной метеорологии и подборкой полезных ссылок на эту тему.

Сайт Метеоцентр.Азия посвящён разработке технологий оптимизации авиаметеорологического обслуживания, включая проектирование и перспективное создание нескольких автоматизированных авиаметеорологических систем:
- система выпуска высокодетальных прогностических карт явлений погоды для нижнего воздушного пространства по России и ближнему зарубежью;
- система верификации прогнозов TAF (выпускаемых синоптиками официальных АМСГ РФ и ближнего зарубежья) и AUTOTAF (выпускаемых сайтом Метеоцентр.Азия) - выявление ошибок, онлайн-сопоставление с фактической погодой METAR, автоматическое внесение коррективов в прогнозы при резком отклонении фактической погоды от прогноза, подсчёт оправдываемости прогнозов по элементам и в целом;
- система обработки, анализа и отображения авиаметеорологической информации для применения провайдерами метеорологической информации.

Рекомендуем: Световое шоу flagro светодиодные крылья.

Погода Владимир-Волынский - сегодня

Время (UTC), дата Ветер
(°,м/с) 
Видим.   Явления Облачность Т
(°С)
Тd
(°С)
f(%) Тe
(°С)
Pmin
(гПа)
dP
(гПа)
Po
(мм)
O2
(г/м3)
Тmin Tmax R s Состояние
почвы
09 25.03.17 270 (З) 20000 м    10/10 600 м 
[Sc]
+5 +1.2 76 +5  1025.3  -1.1  751  297           
12 25.03.17 250 (З) 20000 м    9/3 600 м средняя 
[Sc|Ac lent]
+9.2 +0.6 55 +9  1020.6  -4.2  748  291           
15 25.03.17 280 (З) 20000 м    10/10 600 м 
[Sc]
+8.6 -0.9 51 +7  1017.6  -3  746  291           
18 25.03.17 300 (СЗ) 10 км    10/10 600 м 
[Sc]
+6.8 +2.7 75 +5  1016.5  -1.2  745  292    +10.2       
21 25.03.17 300 (СЗ) 4000 м  слаб. ливневой дождь  10/10 600 м кучево-дожд. 
[Cb cap]
+2.8 +1 88 +1  1015.9  -0.9  744  297           
00 26.03.17 330 (СЗ) 10 км  в посл. час ливневой дождь  10/10 600 м 
[Sc]
+1.6 +0.2 90 1016.4  0.4  744  298         
03 26.03.17 330 (СЗ) 10 км    10/10 600 м кучево-дожд. 
[Cb cap]
+2 +0.7 91 1017.4  745  298           
06 26.03.17 010 (С) 20000 м  в посл. час ливневой дождь  9/9 600 м кучево-дожд. 
[Cb cap]
+1.7 +0.1 89 -1  1019.8  2.3  747  299  +1       
09 26.03.17 010 (С) 20000 м    10/10 600 м кучево-дожд. 
[Cb cap]
+2.4 -0.6 81 1022.8  749  299           
12 26.03.17 350 (С) 20000 м    10/10 600 м кучево-дожд. 
[Cb cap]
+3.7 -1.6 68 +2  1023.9  1.2  750  298           
15 26.03.17 340 (С) 20000 м    9/9 600 м 
[Sc]
+3.3 -2.7 65 +1  1024.7  0.7  750  299           
18 26.03.17 290 (З) 10 км    10/10 600 м 
[Sc]
+3.2 -2.2 68 +2  1025  0.3  751  299    +4.3       
21 26.03.17 270 (З) 10 км    10/10 600 м 
[Sc]
+1.8 -1.9 76 1024.9  -0.2  750  301           
00 27.03.17 270 (З) 10 км    10/10 600 м 
[Sc]
+1.9 -1.2 80 1023.5  -1.4  749  300           
03 27.03.17 270 (З) 10 км    10/10 600 м 
[Sc]
+3.1 -0.7 76 +1  1021.3  -2  748  298           
06 27.03.17 270 (З) 20000 м    9/9 600 м 
[Sc]
+4.8 -0.2 70 +3  1020.7  -0.5  748  296  +0.7         
09 27.03.17 300 (СЗ) 20000 м    3/0 средняя 
[Ac lent]
+9.6 +0.5 53 +8  1019.8  -0.4  747  291           
12 27.03.17 310 (СЗ) 20000 м    ясно 
+13 +4 54 +13  1018.8  -0.7  747  287           
15 27.03.17 290 (З) 20000 м    8/8 600 м 
[Cu hum]
+13.8 +5.6 58 +13  1018.3  -0.4  746  285           
18 27.03.17 290 (З) 10 км    ясно 
+11.4 +5.1 65 +12  1019.2  0.6  747  288    +14.2       
21 27.03.17 270 (З) 10 км    ясно 
+8 +4.6 79 +7  1019  -0.4  747  292           
00 28.03.17 260 (З) 10 км    ясно 
+7.6 +4.9 83 +7  1018.1  -0.9  746  292           
03 28.03.17 260 (З) 10 км    ясно 
+6.2 +3.6 83 +6  1017.3  -1  745  293           
06 28.03.17 270 (З) 10 км    ясно 
+7.5 +4.3 80 +6  1017.2  -0.1  745  292  +5.3         
09 28.03.17 290 (З) 20000 м    ясно 
+12.5 +4.4 58 +12  1017.6  746  287           
Время (UTC), дата Ветер
(°,м/с) 
Видим.   Явления Облачность Т
(°С)
Тd
(°С)
f(%) Тe
(°С)
Pmin
(гПа)
dP
(гПа)
Po
(мм)
O2
(г/м3)
Тmin Tmax R s Состояние
почвы

Для получения пояснительной информации подведите курсор к названию столбца.

ПОГОДА Владимир-Волынский - архив

Всё, что Вы хотите узнать о погоде Владимир-Волынский - удобно и подробно!

Выберите нужную дату (начиная с 1 января 2015* года) и нажмите кнопку "Найти".
Будут отображены архивные сводки погоды по пункту Владимир-Волынский, начиная с указанной даты.


Отображать данные в формате CSV (для использования в таблицах Excel)


Внимание! Наш архив погоды предназначен исключительно для личного некоммерческого использования в познавательных целях. Если Вам необходимы официальные справки о состоянии погоды (для производственных, юридических, коммерческих и т.п. целей), обращайтесь в органы Росгидромета.

*Примечание: данная дата относится к архиву по метеостанциям СССР (Россия, СНГ, Балтия).
Архив по метеостанциям Зарубежной Европы и Азии (кроме Китая) хранится 10 дней, по другим регионам земного шара (Китай, Африка, Америка, Австралия, Океания) - 1 день.

Владимир-Волынский - район местоположения метеостанции


Название, широта, долгота, высота метеостанции:
Владимир-Волынский 50.8°ш. 24.3°д. 194 м над ур. моря [Украина]

Дополнительная информация

В oтличие oт бoльшинства пoгoдных сайтoв мы публикуем пoдрoбную метеoинфoрмацию в детальнoм прoфессиoнальнoм фoрмате.

Характеристики температуры и влажнoсти вoздуха измеряются на высoте 2 м в тени вдали oт зданий и деревьев.
Скoрoсть ветра измеряется на высoте 10 м (на урoвне рoста челoвека скoрoсть ветра ниже в 1.5-2 раза). Если метеoстанция нахoдится в гoрoде или в лесу, тo скoрoсть ветра занижена на 2-4 м/с пo сравнению с oткрытым местoм. Скoрoсть ветра над акватoриями крупных рек и oзёр, а также на вершинах хoлмoв на 2-5 м/с выше, чем в oбычных услoвиях.
Атмoсфернoе давление в разных тoчках местнoсти мoжет значительнo oтличаться oт давления на метеoстанции, в зависимoсти oт услoвий рельефа (при пoдъёме на 10 м давление пoнижается примернo на 1 мм рт.ст.).